Flag for USA

Past Weather in Tempe, Arizona, USA — Yesterday and Last 2 Weeks

Now
93 °F

Passing clouds.


Feels Like: 88 °F
Forecast: 96 / 63 °F
Wind: 5 mph from North

Location: Phoenix Sky Harbor International Airport
Current Time: Oct 19, 2020 at 3:13:33 pm
Latest Report: Oct 19, 2020 at 1:51 pm
Visibility: 10 mi
Pressure29.79 "Hg
Humidity: 10%
Dew Point: 30 °F
Location of TempeLocation

Past Weather in Tempe — Graph

°F

Tempe Temperature Yesterday

Maximum temperature yesterday: 95 °F (at 3:51 pm)
Minimum temperature yesterday: 66 °F (at 6:51 am)
Average temperature yesterday: 81 °F

High & Low Weather Summary for the Past Weeks

 TemperatureHumidityPressure
High104 °F (Oct 5, 3:51 pm)37% (Oct 12, 5:51 am)29.99 "Hg (Oct 12, 5:51 am)
Low66 °F (Oct 18, 6:51 am)5% (Oct 4, 2:51 pm)29.69 "Hg (Oct 8, 5:51 pm)
Average85 °F18%29.83 "Hg
* Reported Oct 4 12:51 pm — Oct 19 12:51 pm, Tempe. Weather by CustomWeather, © 2020

Note: Actual official high and low records may vary slightly from our data, if they occured in-between our weather recording intervals... More about our weather records

Tempe Weather History for the Previous 24 Hours

Scroll right to see more
 ConditionsComfort  
Time TempWeatherWind HumidityBarometerVisibility
12:51 pm
Mon, Oct 19
91 °FPassing clouds.No wind12%29.82 "Hg10 mi
11:51 am90 °FPartly sunny.3 mph12%29.85 "Hg10 mi
10:51 am85 °FPartly sunny.6 mph13%29.87 "Hg10 mi
9:51 am82 °FScattered clouds.6 mph16%29.89 "Hg10 mi
8:51 am76 °FScattered clouds.7 mph20%29.90 "Hg10 mi
7:51 am73 °FPassing clouds.8 mph21%29.88 "Hg10 mi
6:51 am68 °FPassing clouds.5 mph25%29.86 "Hg10 mi
5:51 am68 °FPassing clouds.5 mph25%29.85 "Hg10 mi
4:51 am69 °FClear.No wind23%29.84 "Hg10 mi
3:51 am70 °FClear.5 mph23%29.83 "Hg10 mi
12:51 am74 °FClear.6 mph23%29.83 "Hg10 mi
11:51 pm
Sun, Oct 18
76 °FClear.8 mph19%29.83 "Hg10 mi
10:51 pm78 °FClear.6 mph19%29.83 "Hg10 mi
9:51 pm79 °FClear.6 mph17%29.84 "Hg10 mi
8:51 pm83 °FPassing clouds.3 mph17%29.83 "Hg10 mi
7:51 pm84 °FPassing clouds.3 mph15%29.83 "Hg10 mi
6:51 pm89 °FPassing clouds.3 mph12%29.82 "Hg10 mi
5:51 pm93 °FPassing clouds.6 mph9%29.81 "Hg10 mi
4:51 pm95 °FPassing clouds.5 mph8%29.80 "Hg10 mi
3:51 pm95 °FPassing clouds.No wind8%29.81 "Hg10 mi
Weather by CustomWeather, © 2020

See weather overview